• In Portugal
  • List of Countries
  • For 7 days
  • Water Temperature
  • Satellite Maps
  • Weather Map
  • Weather Widgets
  • user-avatar
    Login

    Hourly Weather Dori

    Today, 22 June, Friday

    Time Temperature Precipitation Wind Pressure Humidity
    00:00 +37°C° 0 mm 8 mps 734 mmHg 46%
    01:00 +35°C° 0 mm 8 mps 734 mmHg 49%
    02:00 +34°C° 0 mm 8 mps 734 mmHg 52%
    03:00 +33°C° 0 mm 8 mps 734 mmHg 56%
    04:00 +33°C° 0 mm 8 mps 734 mmHg 57%
    05:00 +33°C° 0 mm 7 mps 735 mmHg 57%
    06:00 +32°C° 0 mm 7 mps 735 mmHg 58%
    07:00 +33°C° 0 mm 6 mps 735 mmHg 54%
    08:00 +34°C° 0 mm 6 mps 735 mmHg 51%
    09:00 +35°C° 0 mm 6 mps 735 mmHg 47%
    10:00 +36°C° 0 mm 6 mps 735 mmHg 42%
    11:00 +39°C° 0 mm 6 mps 735 mmHg 38%
    12:00 +40°C° 0 mm 6 mps 735 mmHg 34%
    13:00 +41°C° 0 mm 5 mps 734 mmHg 32%
    14:00 +41°C° 0 mm 4 mps 733 mmHg 30%
    15:00 +42°C° 0 mm 3 mps 733 mmHg 28%
    16:00 +42°C° 0 mm 3 mps 733 mmHg 28%
    17:00 +40°C° 0 mm 3 mps 733 mmHg 28%
    18:00 +40°C° 0 mm 3 mps 733 mmHg 29%
    19:00 +40°C° 0 mm 3 mps 733 mmHg 29%
    20:00 +40°C° 0 mm 3 mps 734 mmHg 30%
    21:00 +40°C° 0 mm 4 mps 734 mmHg 30%
    22:00 +40°C° 0.2 mm 4 mps 734 mmHg 32%
    23:00 +38°C° 0.2 mm 4 mps 734 mmHg 33%

    Tomorrow, 23 June, Saturday

    Time Temperature Precipitation Wind Pressure Humidity
    00:00 +38°C° 0.2 mm 4 mps 734 mmHg 34%
    01:00 +37°C° 0 mm 5 mps 734 mmHg 38%
    02:00 +36°C° 0 mm 6 mps 734 mmHg 42%
    03:00 +35°C° 0 mm 7 mps 733 mmHg 45%
    04:00 +35°C° 0 mm 7 mps 733 mmHg 47%
    05:00 +34°C° 0 mm 7 mps 734 mmHg 49%
    06:00 +34°C° 0 mm 7 mps 734 mmHg 51%
    07:00 +34°C° 0 mm 7 mps 734 mmHg 49%
    08:00 +35°C° 0 mm 7 mps 735 mmHg 47%
    09:00 +36°C° 0 mm 7 mps 735 mmHg 45%
    10:00 +38°C° 0 mm 6 mps 735 mmHg 42%
    11:00 +39°C° 0 mm 6 mps 735 mmHg 39%
    12:00 +40°C° 0 mm 6 mps 734 mmHg 36%
    13:00 +40°C° 0 mm 5 mps 734 mmHg 35%
    14:00 +40°C° 0 mm 3 mps 733 mmHg 33%
    15:00 +40°C° 0 mm 2 mps 732 mmHg 31%
    16:00 +40°C° 0.1 mm 2 mps 732 mmHg 31%
    17:00 +39°C° 0.1 mm 2 mps 733 mmHg 32%
    18:00 +39°C° 0.1 mm 2 mps 733 mmHg 33%
    19:00 +38°C° 1 mm 2 mps 733 mmHg 36%
    20:00 +37°C° 1 mm 3 mps 733 mmHg 38%
    21:00 +37°C° 1 mm 3 mps 733 mmHg 41%
    22:00 +36°C° 0.3 mm 4 mps 732 mmHg 44%
    23:00 +35°C° 0.3 mm 5 mps 732 mmHg 48%

    Day after tomorrow, 24 June, Sunday

    Time Temperature Precipitation Wind Pressure Humidity
    00:00 +35°C° 0.3 mm 6 mps 732 mmHg 51%
    01:00 +34°C° 2.5 mm 5 mps 732 mmHg 55%
    02:00 +33°C° 2.5 mm 4 mps 732 mmHg 60%
    03:00 +30°C° 2.5 mm 4 mps 732 mmHg 64%
    04:00 +30°C° 2.9 mm 4 mps 732 mmHg 63%
    05:00 +30°C° 2.9 mm 4 mps 733 mmHg 62%
    06:00 +30°C° 2.9 mm 4 mps 733 mmHg 60%
    07:00 +30°C° 0.7 mm 5 mps 733 mmHg 63%
    08:00 +30°C° 0.7 mm 6 mps 734 mmHg 65%
    09:00 +29°C° 0.7 mm 7 mps 734 mmHg 67%
    10:00 +30°C° 0 mm 7 mps 734 mmHg 64%
    11:00 +32°C° 0 mm 7 mps 735 mmHg 61%
    12:00 +32°C° 0 mm 7 mps 735 mmHg 58%
    13:00 +33°C° 0 mm 7 mps 734 mmHg 57%
    14:00 +33°C° 0 mm 7 mps 734 mmHg 55%
    15:00 +34°C° 0 mm 7 mps 733 mmHg 54%
    16:00 +33°C° 0 mm 6 mps 733 mmHg 54%
    17:00 +33°C° 0 mm 6 mps 733 mmHg 54%
    18:00 +33°C° 0 mm 5 mps 733 mmHg 55%
    19:00 +32°C° 0 mm 4 mps 734 mmHg 56%
    20:00 +32°C° 0 mm 4 mps 734 mmHg 58%
    21:00 +32°C° 0 mm 4 mps 734 mmHg 60%
    22:00 +30°C° 0 mm 4 mps 735 mmHg 61%
    23:00 +30°C° 0 mm 4 mps 735 mmHg 63%

    25 June, Monday

    Time Temperature Precipitation Wind Pressure Humidity
    00:00 +30°C° 0 mm 4 mps 735 mmHg 64%
    01:00 +29°C° 0 mm 4 mps 734 mmHg 66%
    02:00 +29°C° 0 mm 4 mps 734 mmHg 67%
    03:00 +29°C° 0 mm 4 mps 734 mmHg 68%
    04:00 +29°C° 0 mm 4 mps 734 mmHg 69%
    05:00 +28°C° 0 mm 4 mps 735 mmHg 69%
    06:00 +28°C° 0 mm 3 mps 735 mmHg 70%
    07:00 +29°C° 0 mm 4 mps 735 mmHg 65%
    08:00 +30°C° 0 mm 4 mps 736 mmHg 60%
    09:00 +32°C° 0 mm 4 mps 736 mmHg 56%
    10:00 +33°C° 0 mm 4 mps 736 mmHg 51%
    11:00 +35°C° 0 mm 4 mps 735 mmHg 46%
    12:00 +36°C° 0 mm 5 mps 735 mmHg 42%
    13:00 +36°C° 0 mm 4 mps 734 mmHg 39%
    14:00 +37°C° 0 mm 4 mps 734 mmHg 37%
    15:00 +38°C° 0 mm 4 mps 733 mmHg 34%
    16:00 +38°C° 0 mm 4 mps 733 mmHg 34%
    17:00 +38°C° 0 mm 4 mps 733 mmHg 34%
    18:00 +38°C° 0 mm 4 mps 733 mmHg 35%
    19:00 +37°C° 0 mm 4 mps 734 mmHg 37%
    20:00 +36°C° 0 mm 4 mps 734 mmHg 39%
    21:00 +36°C° 0 mm 4 mps 735 mmHg 41%
    22:00 +35°C° 0 mm 4 mps 734 mmHg 42%
    23:00 +35°C° 0 mm 4 mps 734 mmHg 44%

    26 June, Tuesday

    Time Temperature Precipitation Wind Pressure Humidity
    00:00 +34°C° 0 mm 4 mps 734 mmHg 46%
    01:00 +34°C° 0 mm 5 mps 734 mmHg 47%
    02:00 +34°C° 0 mm 5 mps 734 mmHg 49%
    03:00 +33°C° 0 mm 5 mps 734 mmHg 50%
    04:00 +33°C° 0 mm 5 mps 734 mmHg 52%
    05:00 +33°C° 0 mm 5 mps 734 mmHg 53%
    06:00 +33°C° 0 mm 5 mps 734 mmHg 54%
    07:00 +33°C° 0 mm 6 mps 734 mmHg 52%
    08:00 +34°C° 0 mm 6 mps 735 mmHg 50%
    09:00 +34°C° 0 mm 7 mps 735 mmHg 47%
    10:00 +33°C° 8.3 mm 7 mps 735 mmHg 55%
    11:00 +32°C° 8.3 mm 7 mps 735 mmHg 63%
    12:00 +29°C° 8.3 mm 7 mps 735 mmHg 72%
    13:00 +30°C° 2.8 mm 7 mps 734 mmHg 68%
    14:00 +30°C° 2.8 mm 6 mps 734 mmHg 64%
    15:00 +32°C° 2.8 mm 6 mps 733 mmHg 60%
    16:00 +32°C° 0 mm 6 mps 733 mmHg 59%
    17:00 +32°C° 0 mm 6 mps 733 mmHg 58%
    18:00 +32°C° 0 mm 6 mps 733 mmHg 56%
    19:00 +32°C° 0 mm 5 mps 733 mmHg 57%
    20:00 +32°C° 0 mm 5 mps 733 mmHg 58%
    21:00 +32°C° 0 mm 4 mps 734 mmHg 59%
    22:00 +30°C° 0.1 mm 4 mps 734 mmHg 60%
    23:00 +30°C° 0.1 mm 3 mps 734 mmHg 60%

    27 June, Wednesday

    Time Temperature Precipitation Wind Pressure Humidity
    00:00 +30°C° 0.1 mm 3 mps 734 mmHg 61%
    01:00 +30°C° 0.1 mm 3 mps 733 mmHg 61%
    02:00 +30°C° 0.1 mm 3 mps 733 mmHg 62%
    03:00 +30°C° 0.1 mm 2 mps 733 mmHg 62%
    04:00 +30°C° 0.3 mm 3 mps 733 mmHg 62%
    05:00 +30°C° 0.3 mm 4 mps 733 mmHg 62%
    06:00 +30°C° 0.3 mm 5 mps 734 mmHg 62%
    07:00 +32°C° 0.1 mm 5 mps 734 mmHg 57%
    08:00 +33°C° 0.1 mm 5 mps 734 mmHg 51%
    09:00 +34°C° 0.1 mm 6 mps 734 mmHg 46%
    10:00 +35°C° 0 mm 5 mps 734 mmHg 42%
    11:00 +37°C° 0 mm 5 mps 734 mmHg 39%
    12:00 +38°C° 0 mm 4 mps 734 mmHg 36%
    13:00 +38°C° 0 mm 4 mps 733 mmHg 34%
    14:00 +40°C° 0 mm 4 mps 733 mmHg 33%
    15:00 +39°C° 0 mm 3 mps 732 mmHg 31%
    16:00 +39°C° 0 mm 3 mps 732 mmHg 31%
    17:00 +39°C° 0 mm 3 mps 732 mmHg 31%
    18:00 +39°C° 0 mm 3 mps 732 mmHg 32%
    19:00 +38°C° 0 mm 3 mps 733 mmHg 34%
    20:00 +38°C° 0 mm 3 mps 733 mmHg 36%
    21:00 +37°C° 0 mm 3 mps 733 mmHg 38%
    22:00 +37°C° 0 mm 4 mps 733 mmHg 40%
    23:00 +36°C° 0 mm 4 mps 733 mmHg 42%
    Show more